This demonstration page uses our WeatherBlox Daily Observations layout. Learn more.

Left ArrowRight Arrow

Hourly Observations for September 1, 2018

Temp ( °F °C ) Dew Point ( °F °C ) Humidity (%) Winds ( mph kmh ) Pressure ( in mb ) Visibility ( mi km ) Precip ( " mm )
12:53 am 00:53 Partly Cloudy 71 21.7 69 20.6 94 94 Calm 30.12 1020 10 16 0.02 0.51
1:53 am 01:53 Clear 70 21.1 69 20.6 97 97 Calm 30.12 1020 7 11 0.00 0.00
2:53 am 02:53 Mostly Clear 70 21.1 69 20.6 97 97 Calm 30.11 1020 8 13 0.00 0.00
3:53 am 03:53 Clear 72 22.2 70 21.1 94 94 E 3 6 30.08 1019 10 16 0.00 0.00
4:53 am 04:53 Clear 72 22.2 70 21.1 94 94 Calm 30.10 1019 10 16 0.00 0.00
5:53 am 05:53 Clear 70 21.1 68 20 93 93 Calm 30.11 1020 10 16 0.00 0.00
6:53 am 06:53 Mostly Cloudy 70 21.1 69 20.6 97 97 Calm 30.12 1020 8 13 0.00 0.00
7:53 am 07:53 Mostly Cloudy 71 21.7 70 21.1 96 96 SSE 3 6 30.14 1021 10 16 0.00 0.00
8:53 am 08:53 Mostly Cloudy 73 22.8 71 21.7 94 94 Calm 30.16 1021 10 16 0.00 0.00
9:53 am 09:53 Mostly Cloudy 75 23.9 71 21.7 88 88 SSW 3 6 30.18 1022 10 16 0.00 0.00
10:53 am 10:53 Partly Cloudy 78 25.6 73 22.8 85 85 SW 5 7 30.18 1022 10 16 0.00 0.00
11:53 am 11:53 Mostly Sunny 81 27.2 72 22.2 74 74 SSW 6 9 30.17 1022 10 16 0.00 0.00
12:53 pm 12:53 Cloudy 84 28.9 72 22.2 67 67 SW 6 9 30.16 1021 10 16 0.00 0.00
1:39 pm 13:39 Partly Cloudy with Nearby Thunderstorms 86 30 72 22.2 63 63 VRB 7 11 30.09 1019 10 16 0.00 0.00
1:53 pm 13:53 Partly Cloudy with Nearby Thunderstorms 86 30 71 21.7 61 61 VRB 6 9 30.14 1021 10 16 0.00 0.00
2:40 pm 14:40 Mostly Cloudy 85 29.4 72 22.2 65 65 WSW 10 17 30.09 1019 10 16 0.00 0.00
2:53 pm 14:53 Cloudy with Thunderstorms 79 26.1 73 22.8 82 82 WNW 10 17 30.13 1020 10 16 0.00 0.00
3:10 pm 15:10 Mostly Cloudy with Nearby Thunderstorms 81 27.2 75 23.9 82 82 W 6 9 30.12 1020 10 16 0.00 0.03
3:31 pm 15:31 Mostly Cloudy with Thunderstorms 81 27.2 74 23.3 79 79 WSW 7 11 30.12 1020 10 16 0.00 0.03
3:42 pm 15:42 Mostly Cloudy with Strong Thunderstorms 78 25.6 74 23.3 87 87 W 9 15 30.12 1020 2 3 0.06 1.52
3:47 pm 15:47 Mostly Cloudy with Strong Thunderstorms 75 24 73 23 94 94 W 10 17 30.12 1020 1 1 0.14 3.56
3:53 pm 15:53 Cloudy with Strong Thunderstorms 75 23.9 72 22.2 90 90 WSW 14 22 30.15 1021 1 1 0.32 8.13
4:14 pm 16:14 Cloudy with Strong Thunderstorms 71 21.7 69 20.6 94 94 SW 9 15 30.15 1021 2 3 0.32 8.13
4:36 pm 16:36 Cloudy with Nearby Thunderstorms 72 22.2 69 20.6 91 91 WSW 5 7 30.12 1020 3 5 0.39 9.91
4:53 pm 16:53 Mostly Cloudy 73 22.8 70 21.1 90 90 Calm 30.13 1020 10 16 0.39 9.91
5:35 pm 17:35 Sunny with Nearby Thunderstorms 76 24.4 72 22.2 88 88 Calm 30.12 1020 10 16 0.00 0.00
5:50 pm 17:50 Sunny 75 24 73 23 94 94 Calm 30.09 1019 10 16 0.00 0.00
5:53 pm 17:53 Sunny 77 25 73 22.8 88 88 Calm 30.11 1020 10 16 0.00 0.00
6:53 pm 18:53 Sunny 78 25.6 72 22.2 82 82 VRB 6 9 30.09 1019 10 16 0.00 0.00
7:53 pm 19:53 Sunny 77 25 71 21.7 82 82 VRB 5 7 30.09 1019 10 16 0.00 0.00
8:53 pm 20:53 Clear 76 24.4 71 21.7 85 85 VRB 3 6 30.09 1019 10 16 0.00 0.00
9:53 pm 21:53 Clear 74 23.3 72 22.2 94 94 Calm 30.11 1020 10 16 0.00 0.00
10:53 pm 22:53 Clear 73 22.8 71 21.7 94 94 ESE 3 6 30.12 1020 10 16 0.00 0.00
11:53 pm 23:53 Clear 73 22.8 71 21.7 94 94 Calm 30.12 1020 10 16 0.00 0.00

Powered by AerisWeather